Home > Weather > London > Past weeks

Flag for Canada Past Weather in London, Ontario, Canada — Yesterday and Last 2 Weeks

Now
77 °F

Scattered clouds.


Feels Like: 79 °F
Forecast: 61 / 84 °F
Wind: 3 mph from West

Location: London Weather Station

Current Time: Jul 25, 2016 at 10:38:54 PM

Latest Report: Jul 25, 2016 at 9:00 PM


Visibility: 15 mi

Pressure: 29.91 "Hg

Humidity: 65%

Dew Point: 64 °F

Location of LondonLocation

Past Weather in London — Graph

°F

London Temperature Yesterday

Maximum temperature yesterday: 79 °F (at 12:00 PM)
Minimum temperature yesterday: 61 °F (at 4:00 AM)
Average temperature yesterday: 71 °F

High & Low Weather Summary for the Past Weeks

 TemperatureHumidityPressure
High90 °F (Jul 13, 3:00 PM)100% (Jul 14, 1:00 AM)30.30 "Hg (Jul 14, 1:00 AM)
Low48 °F (Jul 20, 5:00 AM)35% (Jul 23, 3:00 PM)29.75 "Hg (Jul 14, 6:00 AM)
Average72 °F73%30.00 "Hg
* Reported Jul 10 9:00 PM — Jul 25 9:00 PM, London, Weather by CustomWeather, © 2016

Note: Actual official high and low records may vary slightly from our data, if they occured in-between our weather recording intervals... More about our weather records

Advertising

London Weather History for the Previous 24 Hours

Scroll right to see more
 ConditionsComfort  
Time TempWeatherWind HumidityBarometerVisibility
9:00 PM
Mon, Jul 25
77 °FScattered clouds.3 mph65%29.91 "Hg15 mi
8:00 PM81 °FPassing clouds.7 mph58%29.89 "Hg15 mi
7:00 PM82 °FScattered clouds.10 mph51%29.88 "Hg15 mi
6:00 PM84 °FScattered clouds.14 mph51%29.87 "Hg15 mi
5:00 PM84 °FScattered clouds.10 mph51%29.89 "Hg15 mi
4:00 PM84 °FBroken clouds.14 mph51%29.89 "Hg15 mi
3:00 PM84 °FScattered clouds.16 mph62%29.90 "Hg15 mi
2:00 PM82 °FScattered clouds.13 mph70%29.88 "Hg15 mi
1:00 PM82 °FBroken clouds.13 mph70%29.88 "Hg15 mi
12:00 PM81 °FBroken clouds.9 mph79%29.88 "Hg15 mi
11:00 AM79 °FFog.7 mph94%29.88 "Hg5 mi
10:00 AM77 °FSprinkles. Fog.5 mph94%29.88 "Hg6 mi
9:00 AM75 °FMostly cloudy.5 mph89%29.88 "Hg12 mi
8:00 AM73 °FMostly cloudy.9 mph89%29.86 "Hg10 mi
7:00 AM77 °FFog.10 mph94%29.85 "Hg5 mi
6:50 AM77 °FSprinkles. Fog.12 mph94%29.85 "Hg6 mi
6:00 AM75 °FThunderstorms. Mostly cloudy.8 mph94%29.83 "Hg12 mi
5:00 AM75 °FSprinkles. Overcast.9 mph94%29.83 "Hg10 mi
4:00 AM75 °FPassing clouds.12 mph94%29.84 "Hg15 mi
3:00 AM75 °FPassing clouds.13 mph89%29.87 "Hg15 mi
2:00 AM73 °FPassing clouds.10 mph94%29.87 "Hg15 mi
1:00 AM73 °FPassing clouds.6 mph89%29.90 "Hg15 mi
12:00 AM73 °FPassing clouds.6 mph94%29.90 "Hg15 mi
11:00 PM
Sun, Jul 24
73 °FPassing clouds.9 mph94%29.92 "Hg15 mi
10:00 PM73 °FPartly cloudy.8 mph94%29.91 "Hg15 mi
Weather by CustomWeather, © 2016

See weather overviewHow to use our weather pages